sat.trackr.live / text

‹ back to catalog

COSMOS 2457 (733)

NORAD 36112 · 2009-070B

PAYLOAD ACTIVE UNKNOWN

§ Identity

Operator
Country
CIS
Launch date
2009-12-14
Launch site
TYMSC
Launch vehicle
Mass (kg)
RCS (m²)
6.31

Purposes: nav

External: N2YO · Heavens-Above · Gunter

§ Orbital elements

Epoch: 2026-09-19T05:47:39.564096Z

Period
675.74 min
Inclination
65.0575°
Eccentricity
0.0005952
Mean motion
2.13101103 rev/d
Perigee alt
19,114.8 km
Apogee alt
19,145.1 km
Semi-major
25,508.1 km
B*
0.0000e+0
RAAN
67.6088°
Arg perigee
133.0189°
Mean anomaly
45.4037°
Rev number
13,043

§ Raw data

COSMOS 2457 (733)1 36112U 09070B   26262.24143014  .00000024  00000+0  00000+0 0  99902 36112  65.0575  67.6088 0005952 133.0189  45.4037  2.13101103130430

JSON: /api/v1/satellites/36112 · /tle

For live sub-satellite position, see the globe view (requires WebGL).

§ Visibility from observer

Set your observer location to see the next 7 days of passes ≥ 10°. The values pass through the URL so the page stays shareable.

No JS? Fill the form by hand. The geolocation button needs JavaScript.